Staples, MN

9:18 AM CDT on March 24, 2017 (GMT -0500)
Staples Municipal

Weather History for KSAZ - June, 2013

Change the Weather History Date:

Thursday, June 13, 2013

  Actual Average Record
Temperature  
Mean Temperature 62 °F -  
Max Temperature 75 °F 70 °F 82 °F (2007)
Min Temperature 50 °F 50 °F 42 °F (2014)
Degree Days  
Heating Degree Days 2    
Growing Degree Days 12 (Base 50)    
Moisture  
Dew Point 49 °F    
Average Humidity 62    
Maximum Humidity 88    
Minimum Humidity 38    
Precipitation  
Precipitation 0.00 in - - ()
Sea Level Pressure  
Sea Level Pressure 30.09 in    
Wind  
Wind Speed 4 mph (NNE)    
Max Wind Speed 9 mph    
Max Gust Speed -    
Visibility 10 miles    
Events      
Averages and records for this station are not official NWS values.
T = Trace of Precipitation, MM = Missing Value Source: NWS Daily Summary

Daily Weather History Graph

Daily Weather History Graph

Search for Another Location

Airport or City:

Trip Planner

Search our weather history database for the weather conditions in past years. The results will help you decide how hot, cold, wet, or windy it might be!

Date:

Astronomy

Jun. 13, 2013 Rise Set
Actual Time 5:26 AM CDT 9:12 PM CDT
Civil Twilight 4:47 AM CDT 9:51 PM CDT
Nautical Twilight 3:54 AM CDT 10:44 PM CDT
Astronomical Twilight 2:40 AM CDT 11:58 PM CDT
Moon 10:17 AM CDT (6/13) No Moon Set
Length of Visible Light 17h 04m
Length of Day
15h 46m
Waxing Crescent, 22% of the Moon is Illuminated
Jun 13
Waxing Crescent
Jun 16
First Quarter
Jun 23
Full
Jun 29
Last Quarter
Jul 8
New

Hourly Weather History & Observations

Time (CDT) Temp. Dew Point Humidity Pressure Visibility Wind Dir Wind Speed Gust Speed Precip Events Conditions
12:13 AM 55.4 °F 48.2 °F 77% 30.03 in 10.0 mi NNW 5.8 mph - N/A   Clear
12:34 AM 55.4 °F 48.2 °F 77% 30.04 in 10.0 mi NNW 5.8 mph - N/A   Clear
12:53 AM 55.4 °F 48.2 °F 77% 30.04 in 10.0 mi NNW 5.8 mph - N/A   Clear
1:13 AM 55.4 °F 48.2 °F 77% 30.04 in 10.0 mi NNW 5.8 mph - N/A   Clear
1:33 AM 55.4 °F 48.2 °F 77% 30.04 in 10.0 mi NNW 5.8 mph - N/A   Clear
1:53 AM 53.6 °F 48.2 °F 82% 30.04 in 10.0 mi North 4.6 mph - N/A   Clear
2:12 AM 53.6 °F 48.2 °F 82% 30.05 in 10.0 mi North 4.6 mph - N/A   Clear
2:33 AM 53.6 °F 48.2 °F 82% 30.06 in 10.0 mi NNW 4.6 mph - N/A   Clear
2:53 AM 51.8 °F 48.2 °F 88% 30.07 in 10.0 mi NW 3.5 mph - N/A   Clear
3:14 AM 53.6 °F 48.2 °F 82% 30.08 in 10.0 mi Calm Calm - N/A   Clear
3:33 AM 51.8 °F 48.2 °F 88% 30.08 in 10.0 mi Calm Calm - N/A   Clear
3:53 AM 51.8 °F 48.2 °F 88% 30.08 in 10.0 mi Calm Calm - N/A   Clear
4:14 AM 50.0 °F 46.4 °F 87% 30.08 in 10.0 mi North 4.6 mph - N/A   Clear
4:33 AM 51.8 °F 48.2 °F 88% 30.08 in 10.0 mi North 5.8 mph - N/A   Clear
4:53 AM 51.8 °F 48.2 °F 88% 30.09 in 10.0 mi North 4.6 mph - N/A   Clear
5:14 AM 50.0 °F 46.4 °F 87% 30.09 in 10.0 mi North 3.5 mph - N/A   Clear
5:33 AM 51.8 °F 48.2 °F 88% 30.09 in 10.0 mi North 3.5 mph - N/A   Clear
5:53 AM 50.0 °F 46.4 °F 87% 30.10 in 10.0 mi Calm Calm - N/A   Clear
6:14 AM 51.8 °F 48.2 °F 88% 30.12 in 10.0 mi WNW 3.5 mph - N/A   Clear
6:33 AM 51.8 °F 48.2 °F 88% 30.12 in 10.0 mi Calm Calm - N/A   Clear
6:53 AM 53.6 °F 48.2 °F 82% 30.11 in 10.0 mi NNW 4.6 mph - N/A   Clear
7:14 AM 55.4 °F 50.0 °F 82% 30.12 in 10.0 mi North 6.9 mph - N/A   Clear
7:33 AM 55.4 °F 50.0 °F 82% 30.11 in 10.0 mi NE 4.6 mph - N/A   Clear
7:54 AM 57.2 °F 50.0 °F 77% 30.11 in 10.0 mi NE 5.8 mph - N/A   Clear
8:13 AM 57.2 °F 51.8 °F 82% 30.11 in 10.0 mi NE 5.8 mph - N/A   Clear
8:33 AM 60.8 °F 51.8 °F 72% 30.11 in 10.0 mi ENE 4.6 mph - N/A   Clear
8:54 AM 62.6 °F 51.8 °F 68% 30.12 in 10.0 mi ENE 4.6 mph - N/A   Clear
9:13 AM 62.6 °F 51.8 °F 68% 30.12 in 10.0 mi NNE 5.8 mph - N/A   Clear
9:33 AM 62.6 °F 51.8 °F 68% 30.12 in 10.0 mi North 3.5 mph - N/A   Clear
9:54 AM 64.4 °F 51.8 °F 64% 30.13 in 10.0 mi Calm Calm - N/A   Clear
10:13 AM 66.2 °F 51.8 °F 60% 30.13 in 10.0 mi NNE 3.5 mph - N/A   Clear
10:33 AM 68.0 °F 51.8 °F 56% 30.12 in 10.0 mi NNW 4.6 mph - N/A   Clear
10:54 AM 68.0 °F 51.8 °F 56% 30.12 in 10.0 mi North 3.5 mph - N/A   Clear
11:13 AM 69.8 °F 50.0 °F 49% 30.13 in 10.0 mi North 6.9 mph - N/A   Clear
11:33 AM 69.8 °F 48.2 °F 46% 30.13 in 10.0 mi NNE 9.2 mph - N/A   Clear
11:54 AM 69.8 °F 48.2 °F 46% 30.13 in 10.0 mi NNW 3.5 mph - N/A   Clear
12:13 PM 71.6 °F 50.0 °F 46% 30.13 in 10.0 mi NNW 3.5 mph - N/A   Clear
12:33 PM 71.6 °F 48.2 °F 43% 30.13 in 10.0 mi North 4.6 mph - N/A   Clear
12:54 PM 71.6 °F 48.2 °F 43% 30.13 in 10.0 mi NNE 5.8 mph - N/A   Clear
1:13 PM 71.6 °F 48.2 °F 43% 30.12 in 10.0 mi North 3.5 mph - N/A   Clear
1:33 PM 71.6 °F 48.2 °F 43% 30.12 in 10.0 mi ENE 3.5 mph - N/A   Scattered Clouds
1:54 PM 73.4 °F 48.2 °F 41% 30.11 in 10.0 mi Calm Calm - N/A   Clear
2:13 PM 73.4 °F 48.2 °F 41% 30.11 in 10.0 mi ENE 8.1 mph - N/A   Scattered Clouds
2:33 PM 73.4 °F 48.2 °F 41% 30.11 in 10.0 mi East 6.9 mph - N/A   Scattered Clouds
2:53 PM 73.4 °F 48.2 °F 41% 30.11 in 10.0 mi East 8.1 mph - N/A   Clear
3:13 PM 73.4 °F 48.2 °F 41% 30.10 in 10.0 mi ENE 6.9 mph - N/A   Clear
3:34 PM 73.4 °F 48.2 °F 41% 30.10 in 10.0 mi NNW 3.5 mph - N/A   Clear
3:53 PM 75.2 °F 50.0 °F 41% 30.10 in 10.0 mi ENE 5.8 mph - N/A   Scattered Clouds
4:13 PM 73.4 °F 48.2 °F 41% 30.09 in 10.0 mi SE 6.9 mph - N/A   Scattered Clouds
4:34 PM 75.2 °F 50.0 °F 41% 30.09 in 10.0 mi ENE 5.8 mph - N/A   Clear
4:53 PM 75.2 °F 50.0 °F 41% 30.09 in 10.0 mi ENE 8.1 mph - N/A   Clear
5:11 PM 73.4 °F 48.2 °F 41% 30.09 in 10.0 mi ENE 5.8 mph - N/A   Clear
5:33 PM 73.4 °F 46.4 °F 38% 30.08 in 10.0 mi Calm Calm - N/A   Clear
5:53 PM 75.2 °F 48.2 °F 38% 30.08 in 10.0 mi East 5.8 mph - N/A   Clear
6:14 PM 73.4 °F 50.0 °F 44% 30.07 in 10.0 mi East 3.5 mph - N/A   Clear
6:33 PM 73.4 °F 50.0 °F 44% 30.07 in 10.0 mi ENE 8.1 mph - N/A   Clear
6:53 PM 75.2 °F 50.0 °F 41% 30.07 in 10.0 mi ESE 6.9 mph - N/A   Scattered Clouds
7:14 PM 73.4 °F 50.0 °F 44% 30.08 in 10.0 mi ESE 4.6 mph - N/A   Scattered Clouds
7:33 PM 73.4 °F 48.2 °F 41% 30.07 in 10.0 mi SE 4.6 mph - N/A   Scattered Clouds
7:53 PM 73.4 °F 50.0 °F 44% 30.08 in 10.0 mi ESE 5.8 mph - N/A   Clear
8:12 PM 71.6 °F 50.0 °F 46% 30.07 in 10.0 mi ESE 3.5 mph - N/A   Clear
8:34 PM 71.6 °F 51.8 °F 50% 30.07 in 10.0 mi ESE 4.6 mph - N/A   Clear
8:53 PM 69.8 °F 51.8 °F 53% 30.07 in 10.0 mi Calm Calm - N/A   Clear
9:13 PM 68.0 °F 51.8 °F 56% 30.07 in 10.0 mi Calm Calm - N/A   Clear
9:34 PM 66.2 °F 51.8 °F 60% 30.08 in 10.0 mi Calm Calm - N/A   Scattered Clouds
9:53 PM 66.2 °F 51.8 °F 60% 30.08 in 10.0 mi Calm Calm - N/A   Mostly Cloudy
10:13 PM 64.4 °F 51.8 °F 64% 30.09 in 10.0 mi Calm Calm - N/A   Mostly Cloudy
10:33 PM 64.4 °F 51.8 °F 64% 30.09 in 10.0 mi Calm Calm - N/A   Scattered Clouds
10:53 PM 64.4 °F 51.8 °F 64% 30.09 in 10.0 mi Calm Calm - N/A   Clear
11:14 PM 60.8 °F 51.8 °F 72% 30.09 in 10.0 mi Calm Calm - N/A   Clear
11:33 PM 60.8 °F 51.8 °F 72% 30.08 in 10.0 mi Calm Calm - N/A   Clear
11:53 PM 60.8 °F 51.8 °F 72% 30.08 in 10.0 mi Calm Calm - N/A   Clear